• In France
  • List of Countries
  • For 7 days
  • Water Temperature
  • Satellite Maps
  • Weather Map
  • Weather Widgets
  • user-avatar
    Login

    Hourly Weather Soscha

    Today, 25 September, Tuesday

    Time Temperature Precipitation Wind Pressure Humidity
    00:00 +10°C° 0.8 mm 9 mps 742 mmHg 80%
    01:00 +10°C° 0.3 mm 8 mps 741 mmHg 82%
    02:00 +10°C° 0.3 mm 8 mps 741 mmHg 83%
    03:00 +10°C° 0 mm 6 mps 740 mmHg 87%
    04:00 +10°C° 0.5 mm 6 mps 740 mmHg 87%
    05:00 +10°C° 0.5 mm 6 mps 740 mmHg 86%
    06:00 +9°C° 0.5 mm 6 mps 740 mmHg 86%
    07:00 +9°C° 0.1 mm 6 mps 740 mmHg 83%
    08:00 +9°C° 0.1 mm 6 mps 740 mmHg 79%
    09:00 +9°C° 0 mm 6 mps 740 mmHg 75%
    10:00 +10°C° 0 mm 7 mps 740 mmHg 72%
    11:00 +10°C° 0 mm 7 mps 741 mmHg 70%
    12:00 +10°C° 0 mm 7 mps 741 mmHg 67%
    13:00 +10°C° 0 mm 7 mps 742 mmHg 67%
    14:00 +10°C° 0 mm 7 mps 742 mmHg 66%
    15:00 +10°C° 0 mm 7 mps 743 mmHg 65%
    16:00 +10°C° 0 mm 7 mps 744 mmHg 67%
    17:00 +9°C° 0 mm 6 mps 744 mmHg 69%
    18:00 +8°C° 0 mm 6 mps 745 mmHg 71%
    19:00 +8°C° 0 mm 6 mps 745 mmHg 72%
    20:00 +7°C° 0 mm 6 mps 746 mmHg 74%
    21:00 +7°C° 0 mm 6 mps 746 mmHg 75%
    22:00 +7°C° 0 mm 5 mps 747 mmHg 75%
    23:00 +7°C° 0 mm 5 mps 748 mmHg 76%

    Tomorrow, 26 September, Wednesday

    Time Temperature Precipitation Wind Pressure Humidity
    00:00 +6°C° 0 mm 5 mps 748 mmHg 77%
    01:00 +6°C° 0 mm 5 mps 749 mmHg 78%
    02:00 +6°C° 0 mm 5 mps 749 mmHg 80%
    03:00 +5°C° 0 mm 5 mps 750 mmHg 81%
    04:00 +5°C° 0 mm 4 mps 751 mmHg 83%
    05:00 +4°C° 0 mm 4 mps 751 mmHg 86%
    06:00 +4°C° 0 mm 4 mps 752 mmHg 88%
    07:00 +5°C° 0 mm 4 mps 752 mmHg 83%
    08:00 +5°C° 0 mm 5 mps 753 mmHg 78%
    09:00 +6°C° 0 mm 5 mps 754 mmHg 74%
    10:00 +7°C° 0 mm 5 mps 754 mmHg 68%
    11:00 +8°C° 0 mm 5 mps 755 mmHg 63%
    12:00 +10°C° 0 mm 4 mps 755 mmHg 57%
    13:00 +10°C° 0 mm 4 mps 755 mmHg 55%
    14:00 +10°C° 0 mm 4 mps 755 mmHg 54%
    15:00 +10°C° 0 mm 4 mps 755 mmHg 52%
    16:00 +10°C° 0 mm 4 mps 755 mmHg 54%
    17:00 +9°C° 0 mm 3 mps 755 mmHg 56%
    18:00 +8°C° 0 mm 2 mps 755 mmHg 58%
    19:00 +7°C° 0 mm 3 mps 755 mmHg 61%
    20:00 +5°C° 0 mm 3 mps 755 mmHg 64%
    21:00 +5°C° 0 mm 3 mps 755 mmHg 67%
    22:00 +5°C° 0 mm 4 mps 755 mmHg 66%
    23:00 +5°C° 0 mm 4 mps 754 mmHg 66%

    Day after tomorrow, 27 September, Thursday

    Time Temperature Precipitation Wind Pressure Humidity
    00:00 +5°C° 0 mm 5 mps 753 mmHg 65%
    01:00 +5°C° 0 mm 5 mps 753 mmHg 65%
    02:00 +4°C° 0 mm 6 mps 752 mmHg 66%
    03:00 +4°C° 0 mm 6 mps 751 mmHg 66%
    04:00 +5°C° 0.1 mm 7 mps 750 mmHg 65%
    05:00 +5°C° 0.1 mm 8 mps 749 mmHg 65%
    06:00 +5°C° 0.1 mm 8 mps 748 mmHg 64%
    07:00 +5°C° 1.4 mm 9 mps 747 mmHg 69%
    08:00 +3°C° 1.4 mm 10 mps 746 mmHg 73%
    09:00 +3°C° 1.4 mm 10 mps 745 mmHg 78%
    10:00 +5°C° 1.4 mm 10 mps 745 mmHg 79%
    11:00 +5°C° 1.4 mm 10 mps 744 mmHg 81%
    12:00 +5°C° 1.4 mm 9 mps 744 mmHg 83%
    13:00 +6°C° 0.7 mm 9 mps 743 mmHg 84%
    14:00 +6°C° 0.7 mm 8 mps 743 mmHg 84%
    15:00 +7°C° 0.7 mm 8 mps 743 mmHg 85%
    16:00 +8°C° 0.4 mm 7 mps 743 mmHg 83%
    17:00 +8°C° 0.4 mm 7 mps 743 mmHg 82%
    18:00 +8°C° 0.4 mm 6 mps 743 mmHg 81%
    19:00 +8°C° 0.1 mm 6 mps 744 mmHg 81%
    20:00 +7°C° 0.1 mm 5 mps 744 mmHg 81%
    21:00 +6°C° 0.1 mm 5 mps 745 mmHg 81%
    22:00 +6°C° 0 mm 5 mps 745 mmHg 81%
    23:00 +6°C° 0 mm 5 mps 746 mmHg 82%

    28 September, Friday

    Time Temperature Precipitation Wind Pressure Humidity
    00:00 +5°C° 0 mm 4 mps 746 mmHg 83%
    01:00 +5°C° 0 mm 5 mps 746 mmHg 84%
    02:00 +5°C° 0 mm 5 mps 747 mmHg 85%
    03:00 +5°C° 0 mm 5 mps 747 mmHg 86%
    04:00 +5°C° 0 mm 5 mps 747 mmHg 87%
    05:00 +3°C° 0 mm 5 mps 747 mmHg 88%
    06:00 +4°C° 0 mm 4 mps 747 mmHg 90%
    07:00 +5°C° 0 mm 5 mps 747 mmHg 85%
    08:00 +6°C° 0 mm 5 mps 747 mmHg 80%
    09:00 +8°C° 0 mm 5 mps 748 mmHg 75%
    10:00 +9°C° 0 mm 6 mps 747 mmHg 67%
    11:00 +10°C° 0 mm 7 mps 746 mmHg 60%
    12:00 +12°C° 0 mm 8 mps 746 mmHg 53%
    13:00 +13°C° 0 mm 9 mps 745 mmHg 54%
    14:00 +13°C° 0 mm 9 mps 744 mmHg 55%
    15:00 +14°C° 0 mm 10 mps 743 mmHg 56%
    16:00 +14°C° 0.2 mm 10 mps 743 mmHg 62%
    17:00 +13°C° 0.2 mm 9 mps 742 mmHg 68%
    18:00 +13°C° 0.2 mm 9 mps 741 mmHg 75%
    19:00 +13°C° 0.3 mm 9 mps 741 mmHg 76%
    20:00 +13°C° 0.3 mm 9 mps 741 mmHg 78%
    21:00 +13°C° 0.3 mm 9 mps 741 mmHg 80%
    22:00 +12°C° 0.4 mm 9 mps 742 mmHg 80%
    23:00 +10°C° 0.4 mm 8 mps 743 mmHg 79%

    29 September, Saturday

    Time Temperature Precipitation Wind Pressure Humidity
    00:00 +8°C° 0.4 mm 7 mps 744 mmHg 78%
    01:00 +7°C° 0 mm 6 mps 745 mmHg 80%
    02:00 +5°C° 0 mm 5 mps 747 mmHg 81%
    03:00 +4°C° 0 mm 4 mps 748 mmHg 83%
    04:00 +3°C° 0 mm 3 mps 749 mmHg 84%
    05:00 +2°C° 0 mm 3 mps 750 mmHg 85%
    06:00 +3°C° 0 mm 2 mps 750 mmHg 86%
    07:00 +3°C° 0 mm 3 mps 751 mmHg 80%
    08:00 +4°C° 0 mm 3 mps 752 mmHg 73%
    09:00 +5°C° 0 mm 3 mps 752 mmHg 67%
    10:00 +7°C° 0 mm 3 mps 753 mmHg 61%
    11:00 +8°C° 0 mm 3 mps 753 mmHg 54%
    12:00 +10°C° 0 mm 3 mps 753 mmHg 47%
    13:00 +10°C° 0 mm 3 mps 753 mmHg 47%
    14:00 +10°C° 0 mm 3 mps 753 mmHg 46%
    15:00 +10°C° 0 mm 3 mps 753 mmHg 46%
    16:00 +9°C° 0 mm 2 mps 754 mmHg 50%
    17:00 +9°C° 0 mm 2 mps 754 mmHg 54%
    18:00 +8°C° 0 mm 2 mps 754 mmHg 58%
    19:00 +7°C° 0 mm 2 mps 755 mmHg 59%
    20:00 +6°C° 0 mm 2 mps 755 mmHg 61%
    21:00 +6°C° 0 mm 2 mps 756 mmHg 62%
    22:00 +5°C° 0 mm 2 mps 756 mmHg 63%
    23:00 +4°C° 0 mm 2 mps 757 mmHg 64%

    30 September, Sunday

    Time Temperature Precipitation Wind Pressure Humidity
    00:00 +4°C° 0 mm 2 mps 757 mmHg 65%
    01:00 +3°C° 0 mm 2 mps 757 mmHg 65%
    02:00 +3°C° 0 mm 2 mps 758 mmHg 66%
    03:00 +2°C° 0 mm 2 mps 758 mmHg 67%
    04:00 +2°C° 0 mm 2 mps 758 mmHg 68%
    05:00 +2°C° 0 mm 1 mps 759 mmHg 69%
    06:00 +2°C° 0 mm 1 mps 759 mmHg 71%
    07:00 +3°C° 0 mm 1 mps 759 mmHg 66%
    08:00 +5°C° 0 mm 1 mps 759 mmHg 61%
    09:00 +6°C° 0 mm 1 mps 760 mmHg 56%
    10:00 +7°C° 0 mm 1 mps 760 mmHg 50%
    11:00 +7°C° 0 mm 2 mps 760 mmHg 45%
    12:00 +8°C° 0 mm 2 mps 760 mmHg 40%
    13:00 +9°C° 0 mm 3 mps 760 mmHg 39%
    14:00 +9°C° 0 mm 3 mps 759 mmHg 39%
    15:00 +9°C° 0 mm 3 mps 759 mmHg 39%
    16:00 +8°C° 0 mm 3 mps 759 mmHg 44%
    17:00 +7°C° 0 mm 2 mps 759 mmHg 49%
    18:00 +6°C° 0 mm 2 mps 759 mmHg 54%
    19:00 +6°C° 0 mm 2 mps 759 mmHg 57%
    20:00 +5°C° 0 mm 2 mps 759 mmHg 60%
    21:00 +5°C° 0 mm 2 mps 759 mmHg 62%
    22:00 +4°C° 0 mm 2 mps 759 mmHg 65%
    23:00 +4°C° 0 mm 2 mps 759 mmHg 67%
    Show more